DELTA 1 R/B (20323 NORAD) Tracking and Keplerian Element Data

This shows tracking and keplerian element data for the satellite.

Feedback or suggestion? Click here.




ElementValue
Catalog20323
NameDELTA 1 R/B
Epoch Orbit49143
Epoch Day198.66842124
Epoch Year2018
RAAN87.4975
Inclination97.1098
Eccentricity0.0070212
Argument of Perigee277.2197
Mean Anonmoly82.1022
Mean Motion14.4826349
Decay Rate2E-07
L11 20323U 89089B 18198.66842124 .00000020 00000-0 14571-4 0 9998
L22 20323 97.1098 87.4975 0070212 277.2197 82.1022 14.48263490491430

Live tracking and technical data element details for DELTA 1 R/B (NORAD 20323). DELTA 1 R/B can be tracked NOW for your location showing map with azimuth and elevation plus other details from your city location.

Track the satellite on the map from your city or location and see movement details for azimuth, elevation, latitude, longitude, range, height, and movement on the map or in text.







IsCatalogInMostPopularTable: catalog: 20323, numindb: 28
Update: records affected: 1



GetName: 20323 DELTA 1 R/B

Hit Count: updated at: Fri, 20 Jul 2018 20:20:39 GMT